Starlink 3812

operational
NORAD ID: 52346 Int'l Des: 2022-045 Owner: SPXS Country: US Constellation: starlink
LEOCIRCULAR

Starlink 3812について

説明を読み込み中...

リアルタイム位置

3D地球を読み込み中...

次回通過

高度履歴

Altitude vs Time

uPlot chart will show altitude changes over time

軌道要素

1 52346U 22045R 25298.44606272 .00001020 00000-0 82157-4 0 9990
2 52346 53.2174 86.2617 0001321 92.3901 267.7242 15.08832627195361
Epoch: Oct 25, 2025 • Age: 14 hours

現在のステータス

高度 557.4 km
速度 7.58 km/s
衛星直下点 -48.86°S, 19.92°W
打ち上げ日 Apr 29, 2022
運用期間 3.4 years
タイプ internet

技術仕様

分類 Payload
質量 297.00 kg
乾燥質量 275.00 kg
総質量 297.00 kg
長さ 0.20 m
直径 2.80 m
スパン 9.00 m
形状 Box + pan
製造者 SPXS
バスタイプ Starlink
フェーズステータス In Orbit
所有者/国 SPXS/US

大規模コンステレーション

Loading constellations...